Weather History for KBIS - October, 2012

Change the Weather History Date:

Sunday, October 7, 2012

  Actual Average Record
Temperature  
Mean Temperature 40 °F 49 °F  
Max Temperature 59 °F 62 °F 91 °F (1920)
Min Temperature 20 °F 36 °F 15 °F (1976)
Degree Days  
Heating Degree Days 25 16  
Month to date heating degree days 146 104  
Since 1 July heating degree days 378 390  
Cooling Degree Days 0 0  
Month to date cooling degree days 0 0  
Year to date cooling degree days 599 519  
Moisture  
Dew Point 26 °F    
Average Humidity 59    
Maximum Humidity 85    
Minimum Humidity 32    
Precipitation  
Precipitation 0.01 in 0.04 in 0.92 in (1977)
Month to date precipitation 0.51 0.31  
Year to date precipitation 12.69 15.71  
Snow  
Snow 0.00 in 0.00 in 4.90 in (1946)
Month to date snowfall T 0.1  
Since 1 July snowfall T 0.3  
Since 1 September snowfall T 0.3  
Snow Depth 0.00 in    
Sea Level Pressure  
Sea Level Pressure 29.98 in    
Wind  
Wind Speed 5 mph (West)    
Max Wind Speed 23 mph    
Max Gust Speed 31 mph    
Visibility 10 miles    
Events Rain    
T = Trace of Precipitation, MM = Missing Value Source: NWS Daily Summary

Daily Weather History Graph

Daily Weather History Graph

Search for Another Location

Airport or City:

Trip Planner

Search our weather history database for the weather conditions in past years. The results will help you decide how hot, cold, wet, or windy it might be!

Date:

Astronomy

Oct. 07, 2012 Rise Set
Actual Time 7:50 AM CDT 7:10 PM CDT
Civil Twilight 7:20 AM CDT 7:40 PM CDT
Nautical Twilight 6:45 AM CDT 8:15 PM CDT
Astronomical Twilight 6:09 AM CDT 8:50 PM CDT
Moon No Moon Rise 2:44 PM CDT (10/7)
Length of Visible Light 12h 20m
Length of Day
11h 19m
Waning Gibbous, 56% of the Moon is Illuminated
Oct 7
Waning Gibbous
Oct 8
Last Quarter
Oct 15
New
Oct 21
First Quarter
Oct 29
Full

Hourly Weather History & Observations

Time (CDT) Temp. Windchill Dew Point Humidity Pressure Visibility Wind Dir Wind Speed Gust Speed Precip Events Conditions
12:52 AM 30.0 °F - 17.1 °F 59% 30.18 in 10.0 mi Calm Calm - N/A   Clear
1:52 AM 28.9 °F 23.9 °F 17.1 °F 61% 30.17 in 10.0 mi West 4.6 mph - N/A   Clear
2:52 AM 24.1 °F - 18.0 °F 77% 30.15 in 10.0 mi Calm Calm - N/A   Clear
3:52 AM 26.1 °F - 17.1 °F 69% 30.11 in 10.0 mi Calm Calm - N/A   Clear
4:52 AM 23.0 °F - 16.0 °F 74% 30.09 in 10.0 mi Calm Calm - N/A   Clear
5:52 AM 23.0 °F - 17.1 °F 78% 30.06 in 10.0 mi Calm Calm - N/A   Clear
6:52 AM 24.1 °F - 17.1 °F 75% 30.05 in 10.0 mi Calm Calm - N/A   Partly Cloudy
7:52 AM 24.1 °F - 19.9 °F 84% 30.03 in 10.0 mi Calm Calm - N/A   Overcast
8:52 AM 28.9 °F - 24.1 °F 82% 30.02 in 10.0 mi Calm Calm - N/A   Overcast
9:52 AM 33.1 °F 30.0 °F 24.1 °F 70% 30.01 in 10.0 mi SSW 3.5 mph - N/A   Overcast
10:52 AM 41.0 °F 38.0 °F 27.0 °F 57% 29.99 in 10.0 mi West 4.6 mph - N/A   Clear
11:52 AM 46.9 °F - 27.0 °F 46% 29.97 in 10.0 mi WNW 10.4 mph - N/A   Overcast
12:52 PM 50.0 °F - 28.0 °F 43% 29.96 in 10.0 mi West 6.9 mph - N/A   Overcast
1:52 PM 55.9 °F - 27.0 °F 33% 29.93 in 10.0 mi Variable 4.6 mph - N/A   Clear
2:52 PM 55.9 °F - 28.9 °F 36% 29.90 in 10.0 mi WNW 11.5 mph 17.3 mph N/A   Mostly Cloudy
3:52 PM 57.0 °F - 30.0 °F 36% 29.88 in 10.0 mi West 8.1 mph - N/A   Partly Cloudy
4:52 PM 57.9 °F - 30.0 °F 35% 29.86 in 10.0 mi West 8.1 mph - N/A   Partly Cloudy
5:52 PM 55.9 °F - 28.9 °F 36% 29.86 in 10.0 mi NW 8.1 mph - N/A   Partly Cloudy
6:52 PM 54.0 °F - 30.0 °F 40% 29.85 in 10.0 mi WNW 4.6 mph - N/A   Mostly Cloudy
7:52 PM 53.1 °F - 32.0 °F 45% 29.88 in 10.0 mi West 19.6 mph 25.3 mph 0.00 in Rain Light Rain
8:52 PM 51.1 °F - 33.1 °F 50% 29.86 in 10.0 mi NW 5.8 mph - 0.00 in   Overcast
9:52 PM 48.0 °F - 39.0 °F 71% 29.86 in 10.0 mi West 6.9 mph - 0.00 in Rain Light Rain
10:52 PM 46.0 °F - 39.9 °F 79% 29.82 in 10.0 mi Calm Calm - 0.01 in Rain Light Rain
11:52 PM 43.0 °F 40.3 °F 39.9 °F 89% 29.78 in 10.0 mi South 4.6 mph - 0.00 in   Overcast